Novato, CA

7:53 AM PST on December 13, 2019 (GMT -0800)
Gnoss

Weather History for KDVO - October, 2019

Change the Weather History Date:

Saturday, October 5, 2019

  Actual Average (KAPC) Record (KAPC)
Temperature  
Mean Temperature 62 °F -  
Max Temperature 84 °F 80 °F 93 °F (2014)
Min Temperature 41 °F 50 °F 36 °F (2009)
Degree Days  
Heating Degree Days 2    
Growing Degree Days 12 (Base 50)    
Moisture  
Dew Point 40 °F    
Average Humidity 55    
Maximum Humidity 100    
Minimum Humidity 15    
Precipitation  
Precipitation 0.00 in - - ()
Sea Level Pressure  
Sea Level Pressure 30.08 in    
Wind  
Wind Speed 1 mph ()    
Max Wind Speed 9 mph    
Max Gust Speed 13 mph    
Visibility 9.8 miles    
Events      
Averages and records for this station are not official NWS values.
T = Trace of Precipitation, MM = Missing Value Source: Averaged Metar Reports

Daily Weather History Graph

Daily Weather History Graph

Search for Another Location

Airport or City:

Astronomy

Oct. 05, 2019 Rise Set
Actual Time 7:09 AM PDT 6:47 PM PDT
Civil Twilight 6:43 AM PDT 7:13 PM PDT
Nautical Twilight 6:12 AM PDT 7:44 PM PDT
Astronomical Twilight 5:41 AM PDT 8:14 PM PDT
Moon 2:34 PM PDT (10/5) No Moon Set
Length of Visible Light 12h 30m
Length of Day
11h 37m
Waxing Crescent, 51% of the Moon is Illuminated
Oct 5
Waxing Crescent
Oct 13
Full
Oct 21
Last Quarter
Oct 27
New
Nov 4
First Quarter

Hourly Weather History & Observations

Time (PDT) Temp. Dew Point Humidity Pressure Visibility Wind Dir Wind Speed Gust Speed Precip Events Conditions
12:15 AM 46.4 °F 41.0 °F 81% 30.13 in 10.0 mi Calm Calm - N/A   Clear
12:35 AM 48.2 °F 42.8 °F 82% 30.13 in 10.0 mi Calm Calm - N/A   Clear
12:55 AM 48.2 °F 42.8 °F 82% 30.13 in 10.0 mi Calm Calm - N/A   Clear
1:15 AM 46.4 °F 41.0 °F 81% 30.13 in 10.0 mi Calm Calm - N/A   Clear
1:35 AM 48.2 °F 42.8 °F 82% 30.12 in 10.0 mi Calm Calm - N/A   Clear
1:55 AM 48.2 °F 44.6 °F 87% 30.12 in 10.0 mi Calm Calm - N/A   Clear
2:15 AM 46.4 °F 42.8 °F 87% 30.12 in 10.0 mi Calm Calm - N/A   Clear
2:35 AM 48.2 °F 42.8 °F 82% 30.12 in 10.0 mi Calm Calm - N/A   Clear
2:55 AM 48.2 °F 44.6 °F 87% 30.12 in 10.0 mi Calm Calm - N/A   Clear
3:15 AM 48.2 °F 44.6 °F 87% 30.12 in 10.0 mi Calm Calm - N/A   Clear
3:35 AM 44.6 °F 41.0 °F 87% 30.11 in 10.0 mi Calm Calm - N/A   Clear
3:55 AM 48.2 °F 44.6 °F 87% 30.11 in 10.0 mi Calm Calm - N/A   Clear
4:15 AM 44.6 °F 41.0 °F 87% 30.11 in 10.0 mi Calm Calm - N/A   Clear
4:35 AM 42.8 °F 39.2 °F 87% 30.11 in 10.0 mi Calm Calm - N/A   Clear
4:55 AM 42.8 °F 41.0 °F 93% 30.11 in 10.0 mi Calm Calm - N/A   Clear
5:15 AM 41.0 °F 41.0 °F 100% 30.11 in 10.0 mi Calm Calm - N/A   Clear
5:35 AM 42.8 °F 42.8 °F 100% 30.12 in 10.0 mi Calm Calm - N/A   Clear
5:55 AM 44.6 °F 42.8 °F 93% 30.12 in 10.0 mi Calm Calm - N/A   Clear
6:15 AM 44.6 °F 41.0 °F 87% 30.12 in 10.0 mi Calm Calm - N/A   Clear
6:35 AM 44.6 °F 41.0 °F 87% 30.12 in 10.0 mi Calm Calm - N/A   Clear
6:55 AM 44.6 °F 42.8 °F 93% 30.12 in 10.0 mi Calm Calm - N/A   Clear
7:15 AM 46.4 °F 42.8 °F 87% 30.13 in 10.0 mi Calm Calm - N/A   Clear
7:35 AM 46.4 °F 42.8 °F 87% 30.13 in 10.0 mi Calm Calm - N/A   Clear
7:55 AM 46.4 °F 44.6 °F 93% 30.14 in 10.0 mi Calm Calm - N/A   Clear
8:15 AM 50.0 °F 44.6 °F 82% 30.14 in 10.0 mi Calm Calm - N/A   Clear
8:35 AM 51.8 °F 44.6 °F 76% 30.15 in 10.0 mi Calm Calm - N/A   Clear
8:55 AM 53.6 °F 46.4 °F 77% 30.15 in 10.0 mi Calm Calm - N/A   Clear
9:15 AM 55.4 °F 46.4 °F 72% 30.15 in 10.0 mi North 4.6 mph - N/A   Clear
9:35 AM 57.2 °F 46.4 °F 67% 30.15 in 10.0 mi Calm Calm - N/A   Clear
9:55 AM 60.8 °F 46.4 °F 59% 30.16 in 10.0 mi Calm Calm - N/A   Clear
10:15 AM 62.6 °F 46.4 °F 55% 30.16 in 10.0 mi Calm Calm - N/A   Clear
10:35 AM 66.2 °F 46.4 °F 49% 30.15 in 9.0 mi Calm Calm - N/A   Clear
10:55 AM 68.0 °F 46.4 °F 46% 30.14 in 10.0 mi Calm Calm - N/A   Clear
11:15 AM 71.6 °F 44.6 °F 38% 30.14 in 10.0 mi Calm Calm - N/A   Clear
11:35 AM 71.6 °F 42.8 °F 35% 30.14 in 10.0 mi Calm Calm - N/A   Clear
11:55 AM 73.4 °F 42.8 °F 33% 30.13 in 9.0 mi Variable 4.6 mph - N/A   Clear
12:15 PM 75.2 °F 42.8 °F 31% 30.12 in 9.0 mi Variable 4.6 mph - N/A   Clear
12:35 PM 77.0 °F 39.2 °F 26% 30.11 in 10.0 mi Calm Calm - N/A   Clear
12:55 PM 80.6 °F 37.4 °F 21% 30.10 in 9.0 mi Variable 3.5 mph - N/A   Clear
1:15 PM 80.6 °F 33.8 °F 18% 30.09 in 8.0 mi Variable 5.8 mph 12.7 mph N/A   Clear
1:35 PM 80.6 °F 32.0 °F 17% 30.08 in 9.0 mi Variable 6.9 mph - N/A   Clear
1:55 PM 80.6 °F 33.8 °F 18% 30.07 in 8.0 mi Variable 5.8 mph 11.5 mph N/A   Clear
2:15 PM 82.4 °F 33.8 °F 17% 30.06 in 10.0 mi NNE 5.8 mph - N/A   Clear
2:35 PM 82.4 °F 33.8 °F 17% 30.05 in 10.0 mi Variable 5.8 mph - N/A   Clear
2:55 PM 84.2 °F 32.0 °F 15% 30.05 in 9.0 mi North 8.1 mph - N/A   Clear
3:15 PM 84.2 °F 32.0 °F 15% 30.04 in 9.0 mi Calm Calm - N/A   Clear
3:35 PM 80.6 °F 39.2 °F 23% 30.03 in 8.0 mi Variable 4.6 mph 12.7 mph N/A   Clear
3:55 PM 80.6 °F 39.2 °F 23% 30.03 in 10.0 mi ESE 9.2 mph - N/A   Clear
4:15 PM 80.6 °F 37.4 °F 21% 30.03 in 10.0 mi Variable 5.8 mph - N/A   Clear
4:35 PM 80.6 °F 37.4 °F 21% 30.02 in 10.0 mi ESE 6.9 mph - N/A   Clear
4:55 PM 80.6 °F 37.4 °F 21% 30.02 in 10.0 mi Variable 4.6 mph - N/A   Clear
5:15 PM 80.6 °F 35.6 °F 20% 30.02 in 10.0 mi Calm Calm - N/A   Clear
5:35 PM 80.6 °F 35.6 °F 20% 30.02 in 10.0 mi NW 6.9 mph - N/A   Clear
5:55 PM 78.8 °F 35.6 °F 21% 30.01 in 10.0 mi NNW 4.6 mph - N/A   Clear
6:15 PM 71.6 °F 35.6 °F 27% 30.01 in 10.0 mi Calm Calm - N/A   Clear
6:35 PM 69.8 °F 35.6 °F 28% 30.01 in 10.0 mi NNE 3.5 mph - N/A   Clear
6:55 PM 68.0 °F 37.4 °F 33% 30.02 in 10.0 mi Calm Calm - N/A   Clear
7:15 PM 64.4 °F 39.2 °F 40% 30.02 in 10.0 mi Calm Calm - N/A   Clear
7:35 PM 62.6 °F 37.4 °F 39% 30.03 in 10.0 mi Calm Calm - N/A   Clear
7:55 PM 64.4 °F 37.4 °F 37% 30.03 in 10.0 mi Calm Calm - N/A   Clear
8:15 PM 60.8 °F 37.4 °F 42% 30.03 in 10.0 mi Calm Calm - N/A   Clear
8:35 PM 60.8 °F 37.4 °F 42% 30.03 in 10.0 mi Calm Calm - N/A   Clear
8:55 PM 57.2 °F 37.4 °F 48% 30.03 in 10.0 mi Calm Calm - N/A   Clear
9:15 PM 55.4 °F 37.4 °F 51% 30.03 in 10.0 mi Calm Calm - N/A   Clear
9:35 PM 59.0 °F 37.4 °F 45% 30.03 in 10.0 mi Calm Calm - N/A   Clear
9:55 PM 59.0 °F 41.0 °F 51% 30.02 in 10.0 mi South 4.6 mph - N/A   Clear
10:15 PM 55.4 °F 39.2 °F 54% 30.03 in 10.0 mi Calm Calm - N/A   Clear
10:35 PM 57.2 °F 39.2 °F 51% 30.03 in 10.0 mi Calm Calm - N/A   Clear
10:55 PM 57.2 °F 39.2 °F 51% 30.03 in 10.0 mi Calm Calm - N/A   Clear
11:15 PM 50.0 °F 35.6 °F 58% 30.03 in 10.0 mi Calm Calm - N/A   Clear
11:35 PM 51.8 °F 37.4 °F 58% 30.03 in 10.0 mi Calm Calm - N/A   Clear
11:55 PM 55.4 °F 37.4 °F 51% 30.03 in 10.0 mi Calm Calm - N/A   Clear